RH
47 40 39 35 28 26 28 27 24 24 24 27 26 27 32 32 33 30 26 22 19 16 16 17 24 27 38 35 27 25 22 20 20 20 20 18 16 13 12 11 15 20 22
45 43 41 34 28 25 27 27 26 24 23 28 27 26 27 28 27 26 21 14 11 9 9 17 21 28 27 26 24 22 20 15 15 14 13 14 14 13 13 14 17 18 17
47 44 41 36 31 28 31 30 28 26 24 23 27 28 28 27 27 23 15 11 10 10 10 19 20 20 21 21 18 16 15 14 15 15 15 15 15 16 14 14 15 15 16
45 44 42 40 37 34 34 33 30 29 26 32 31 33 31 28 18 16 17 15 12 11 12 15 17 17 15 13 14 14 14 16 17 17 17 17 17 19 18 16 16 15 17
44 43 41 41 38 41 39 35 33 28 28 30 32 32 30 25 18 17 18 19 18 15 13 13 13 13 15 16 16 16 18 22 24 24 22 23 23 24 24 25 27 26 28
43 41 39 40 40 44 43 39 38 33 28 28 31 32 29 24 24 22 20 20 23 24 24 21 19 20 21 22 24 27 28 29 30 30 31 30 30 28 28 27 25 25 26
42 41 39 42 43 44 46 43 39 35 34 32 33 32 33 28 27 26 24 23 21 24 30 29 31 31 32 32 31 29 28 31 32 32 32 32 30 29 25 28 33 36 38
43 41 42 44 45 47 49 47 40 36 35 34 37 39 35 39 35 30 28 27 28 28 28 30 32 32 32 30 28 28 29 31 32 32 32 31 27 25 21 23 28 30 33
44 46 44 46 48 49 50 48 44 40 34 36 38 39 42 40 41 41 36 34 32 31 33 33 32 32 32 30 31 30 30 31 30 30 30 30 29 28 25 25 24 25 29
46 51 56 57 57 53 48 44 41 40 38 38 40 43 46 47 45 43 42 41 39 37 38 37 35 34 33 34 34 33 32 31 30 29 30 29 28 28 27 29 30 32 36
43 50 55 57 56 52 49 46 45 43 40 41 42 45 46 49 52 48 45 44 43 40 42 42 42 41 40 38 37 33 32 31 31 29 29 28 28 30 33 33 37 36 36
41 44 52 55 54 51 52 50 48 43 41 41 42 43 47 48 52 52 50 47 42 39 42 44 47 47 44 42 37 34 31 30 29 29 29 28 29 31 31 30 33 34 35
38 45 46 48 53 54 54 53 52 47 43 42 41 43 46 47 50 51 49 48 45 42 41 42 44 47 48 43 38 35 33 31 30 28 28 27 26 30 31 30 29 29 28
34 36 40 47 51 53 56 54 56 52 47 44 40 41 45 46 47 49 48 49 46 44 44 44 45 46 43 40 36 33 30 27 26 25 26 27 26 28 26 25 25 27 27
35 35 39 40 43 43 49 55 55 53 53 50 42 39 41 44 46 48 50 49 48 48 47 46 47 48 43 38 36 31 29 29 27 25 24 25 25 24 25 24 23 24 25
38 37 38 41 44 43 40 42 48 51 50 48 43 40 42 44 48 51 50 51 50 50 51 51 49 47 43 39 36 31 27 29 28 26 25 24 24 23 23 22 21 20 20
30 32 38 43 45 39 36 38 39 42 46 47 47 48 49 49 49 49 50 53 55 58 57 54 51 46 42 39 35 32 30 29 30 30 27 25 22 22 22 22 23 21 21
29 30 32 39 44 46 38 39 40 47 49 47 48 51 51 54 51 49 51 56 61 61 61 58 54 48 42 37 33 29 27 27 30 33 31 26 25 25 24 23 22 22 22
29 31 33 37 45 44 39 45 44 43 44 48 50 49 53 56 56 55 56 62 63 62 64 62 53 48 44 39 35 31 28 28 31 36 37 31 29 29 29 29 29 29 29
27 31 35 36 35 46 54 49 47 49 48 49 48 50 56 59 61 61 62 63 63 63 64 62 52 48 46 42 38 37 34 33 36 40 43 43 41 37 36 36 34 34 31
23 24 29 33 33 38 50 53 49 53 50 51 46 52 58 60 62 60 63 66 66 66 67 61 54 52 50 46 43 42 42 42 41 43 44 46 45 44 42 40 38 35 32
25 24 23 24 30 32 35 44 54 45 46 51 52 53 56 61 61 59 60 63 62 63 64 60 58 55 53 50 47 45 45 46 44 44 44 44 43 42 41 39 36 34 32
24 27 28 27 31 34 36 41 54 61 63 55 57 58 61 63 63 59 60 63 64 66 66 63 60 57 54 54 52 49 46 46 47 48 48 46 43 42 40 38 34 30 28
20 24 24 27 28 33 36 39 45 50 53 51 56 57 64 66 66 63 62 65 67 67 63 64 64 61 57 56 55 54 53 52 50 48 48 46 46 44 41 38 33 30 28
16 17 21 25 26 29 31 36 46 53 60 55 52 55 60 66 69 67 67 71 71 70 63 65 65 64 59 56 57 58 58 57 55 52 50 48 47 45 43 39 34 31 28
19 19 19 21 26 27 31 34 39 51 55 58 56 55 57 62 66 68 69 75 76 71 66 70 67 68 65 59 58 60 61 59 56 55 54 53 52 50 47 41 35 30 27